IDEFIX & ARIANE 42P R/B

Last updated on Sun Aug 31 2025 00:02:14 GMT+0000 (Coordinated Universal Time)

1 27422U 02021B 25242.11311540 .00000389 00000+0 16482-3 0 9996 2 27422 98.5622 178.2620 0012668 36.0561 324.1474 14.30834784216625
UTC large
Height (km)
Speed (km/s)
/
Latitude / Longitude
Inclination (degrees)
Orbital Period (minutes)
Azimuth
Elevation
Range (km)
Doppler Factor

Next 0 passes for location: London (51.5072 / 0.1276)

Sorry there are no passes over London.